Flag for Germany Weather past 2 weeks in Ibbenbüren, North Rhine-Westphalia, Germany

Now
73 °F

Broken clouds.


Feels Like: 77 °F
Forecast: 60 / 68 °F
Wind: 9 mph from South

Location: Muenster / Osnabrueck

Current Time: Aug 28, 2014 at 5:36:47 PM

Latest Report: Aug 28, 2014 at 5:20 PM


Visibility: N/A

Pressure: 29.95 "Hg

Humidity: 53%

Dew point: 55 °F

Location of IbbenbürenLocation

Historic Weather in Ibbenbüren — Graph

°F

Ibbenbüren temperature yesterday

Maximum temperature yesterday: 70 °F (at 1:50 PM)
Minimum temperature yesterday: 43 °F (at 5:50 AM)
Average temperature yesterday: 56 °F

Past Weeks' High & Low Weather Summary

 TemperatureHumidityPressure
High75 °F (Aug 28, 3:20 PM)100% (Aug 14, 11:20 PM)30.07 "Hg (Aug 14, 11:20 PM)
Low41 °F (Aug 25, 3:50 AM)40% (Aug 27, 6:20 PM)29.62 "Hg (Aug 18, 4:20 AM)
Average56 °F82%29.89 "Hg
* Reported Aug 13 4:20 PM — Aug 28 4:20 PM, Ibbenbüren, Weather by CustomWeather, © 2014

Note: Actual official high and low records may vary slightly from our data, if they occured in-between our weather recording intervals... More about our weather records

Advertising

Ibbenbüren weather history for previous 24 hours

 ConditionsComfort  
Time TempWeatherWind HumidityBarometerVisibility
4:20 PM
Aug 28
73 °FPartly sunny.3 mph61%29.95 "HgN/A
3:50 PM73 °FPartly sunny.3 mph57%29.95 "HgN/A
3:20 PM75 °FBroken clouds.5 mph54%29.95 "HgN/A
2:50 PM73 °FScattered clouds.5 mph57%29.95 "HgN/A
2:20 PM73 °FPartly sunny.5 mph57%29.95 "HgN/A
1:50 PM72 °FPartly sunny.6 mph65%29.98 "HgN/A
1:20 PM70 °FScattered clouds.3 mph64%29.98 "HgN/A
12:50 PM72 °FScattered clouds.3 mph57%29.98 "HgN/A
12:20 PM70 °FPassing clouds.3 mph64%29.98 "HgN/A
11:50 AM68 °FSunny.5 mph69%30.01 "Hg10 mi
11:20 AM66 °FScattered clouds.5 mph68%30.01 "HgN/A
10:50 AM64 °FPassing clouds.3 mph73%30.01 "HgN/A
10:20 AM63 °FScattered clouds.5 mph68%30.01 "HgN/A
9:50 AM61 °FPartly sunny.3 mph72%30.01 "HgN/A
9:20 AM59 °FScattered clouds.5 mph72%30.01 "HgN/A
8:50 AM57 °FScattered clouds.3 mph77%30.01 "HgN/A
8:20 AM55 °FSunny.3 mph82%30.01 "Hg10 mi
7:50 AM54 °FSunny.5 mph82%30.01 "Hg10 mi
7:20 AM52 °FPassing clouds.6 mph88%30.01 "HgN/A
6:50 AM52 °FPassing clouds.3 mph88%30.01 "HgN/A
6:20 AM50 °FPassing clouds.5 mph94%30.01 "HgN/A
5:50 AM50 °FPassing clouds.3 mph94%30.01 "HgN/A
5:20 AM50 °FFog.5 mph94%30.01 "HgN/A
4:50 AM50 °FFog.3 mph94%30.01 "HgN/A
4:20 AM50 °FFog.2 mph94%30.01 "HgN/A
3:50 AM50 °FFog.2 mph94%30.01 "HgN/A
3:20 AM50 °FFog.1 mph94%30.01 "HgN/A
2:50 AM48 °FFog.1 mph94%30.04 "HgN/A
2:20 AM50 °FFog.1 mph94%30.04 "HgN/A
1:50 AM48 °FFog.1 mph100%30.04 "HgN/A
1:20 AM50 °FFog.1 mph100%30.04 "HgN/A
12:50 AM48 °FFog.1 mph100%30.04 "HgN/A
12:20 AM52 °FFog.1 mph100%30.04 "HgN/A
11:50 PM
Aug 27
52 °FFog.2 mph94%30.04 "HgN/A
11:20 PM50 °FFog.3 mph100%30.04 "HgN/A
10:50 PM52 °FFog.2 mph94%30.04 "HgN/A
10:20 PM54 °FClear.1 mph88%30.04 "Hg10 mi
9:50 PM54 °FClear.1 mph94%30.04 "Hg10 mi
9:20 PM57 °FSunny.1 mph82%30.04 "Hg10 mi
8:50 PM57 °FSunny.2 mph88%30.04 "Hg10 mi
7:50 PM64 °FSunny.2 mph68%30.01 "Hg10 mi
7:20 PM68 °FSunny.1 mph49%30.01 "Hg10 mi
6:20 PM70 °FSunny.2 mph40%30.01 "Hg10 mi
Weather by CustomWeather, © 2014

See weather overviewHow to use our weather pages